Tracking 19638 objects as of 19-Apr-2019
HD Live streaming from Space Station
objects crossing your sky now

THORAD DELTA 1 DEB

Track THORAD DELTA 1 DEB now!
10-day predictions


NORAD ID: 10990
Int'l Code: 1974-089EK
Perigee: 1,352.2 km
Apogee: 1,466.8 km
Inclination: 101.3 °
Period: 113.8 minutes
Semi major axis: 7780 km
RCS: 0.0954 m2 (small)
Launch date: November 15, 1974
Source: United States (US)
Launch site: AIR FORCE WESTERN TEST RANGE (AFWTR)

Note: This is SATELLITE DEBRIS
aabbcc
Your satellite tracking list
Your tracking list is empty




NASA's NSSDC Master Catalog

Two Line Element Set (TLE):
1 10990U 74089EK  19109.11762358 -.00000028  00000-0  89245-4 0  9993
2 10990 101.3109 173.1903 0073627 290.6914  97.7763 12.64995976 50828
Source of the keplerian elements: AFSPC